Regional Weather Roundup
Issued by NWS

Home | Current Version | Previous Version | Graphics & Text | Print | Product List | Glossary On
Versions: 1 2 3 4 5 6 7 8 9 10 11 12 13 14 15 16 17 18 19 20 21 22 23 24 25 26 27
000
ASUS45 KTFX 271810
RWRMT
MONTANA REGIONAL WEATHER ROUNDUP
NATIONAL WEATHER SERVICE GREAT FALLS MT
1200 PM MDT SAT MAY 27 2017

NOTE: "FAIR" INDICATES FEW OR NO CLOUDS BELOW 12000 FEET WITH NO
SIGNIFICANT WEATHER AND/OR OBSTRUCTIONS TO VISIBILITY.

MTZ001>007-043-271900-
WEST OF THE DIVIDE

CITY           SKY/WX    TMP DP  RH WIND       PRES   REMARKS
KALISPELL      SUNNY     67  42  40 S6        30.13S
MISSOULA       SUNNY     66  44  45 W5        30.18F
BUTTE          PTSUNNY   60  28  29 N6        30.21S
MULLAN PASS    SUNNY     56  34  43 MISG      30.25R
ANACONDA         N/A     61  36  39 NE5       30.20R
DEER LODGE       N/A     61  39  44 E3        30.21S
EUREKA           N/A     64  43  45 CALM      30.13F
HAMILTON         N/A     70  37  30 NE3       30.18S
RONAN            N/A     68  41  37 S1        30.19R
$$

MTZ008-052>055-271900-
SOUTHWEST MONTANA

CITY           SKY/WX    TMP DP  RH WIND       PRES   REMARKS
BOZEMAN        SUNNY     62  41  46 NW8       30.18S
DILLON         CLOUDY    61  32  33 CALM      30.20S
ENNIS          MOSUNNY   57  32  38 VRB5      30.25S
THREE FORKS      N/A     65  40  39 SW3       30.14S
$$

MTZ009-010-012-014-046-048-049-054-271900-
EAST SLOPES AND CENTRAL MONTANA

CITY           SKY/WX    TMP DP  RH WIND       PRES   REMARKS
CUT BANK       SUNNY     72  36  26 N15       30.07S
GREAT FALLS    MOSUNNY   70  36  28 SW8       30.08S
MALMSTROM AFB  MOSUNNY   68  41  36 SW9       30.08S
HELENA         SUNNY     67  42  40 CALM      30.13F
CHOTEAU          N/A     70  30  23 VRB5G13   30.11S
CONRAD           N/A     73  44  35 W18       30.09R
$$

MTZ011-013-016-021-045-047-050-051-271900-
NORTH CENTRAL MONTANA

CITY           SKY/WX    TMP DP  RH WIND       PRES   REMARKS
HAVRE          SUNNY     76  37  24 NW16      29.98S
LEWISTOWN      MOSUNNY   66  36  32 N14G25    30.07S
N BAR RANCH      N/A     66  36  32 NW18G28   30.09F
CHINOOK          N/A     73  34  23 NW14G22   29.96S
FORT BENTON      N/A     72  36  26 CALM      30.04R
$$

MTZ017>020-022>027-061-062-271900-
NORTHEAST MONTANA

CITY           SKY/WX    TMP DP  RH WIND       PRES   REMARKS
GLASGOW        SUNNY     72  37  28 NW15G21   29.90F
JORDAN           N/A     68  38  33 W16       29.95S
SIDNEY         SUNNY     72  40  31 W18G24    29.86F
WOLF POINT     MOSUNNY   76  38  25 NW15G29   29.87F
MALTA          MOSUNNY   73  37  27 NW12G28   29.92S
PLENTYWOOD       N/A     70  34  26 W17G29    29.82F
POPLAR           N/A     72  37  28 NW17G25   29.86F
SCOBEY           N/A     70  34  26 NW16      29.87S
$$

MTZ028>42-056>058-271900-
SOUTHCENTRAL AND SOUTHEAST MONTANA

CITY           SKY/WX    TMP DP  RH WIND       PRES   REMARKS
BAKER          SUNNY     66  39  37 W16G26    29.97S
BILLINGS       PTSUNNY   70  31  23 NW12G23   30.07F
LIVINGSTON     MOSUNNY   64  39  39 W8        30.15S
MILES CITY     CLOUDY    70  33  25 W18       29.96F
BIG TIMBER     CLOUDY    63  36  36 W14G21    30.16R
EKALAKA          N/A     66  34  30 W21       29.98F
FORSYTH          N/A     68  36  30 W12       29.99F
LAUREL           N/A     67  36  31 W3        30.07F
ROUNDUP          N/A     67  32  27 W14       29.96S
$$

REGIONAL REPORTS...DAKOTAS

CITY           SKY/WX    TMP DP  RH WIND       PRES   REMARKS
WILLISTON      MOSUNNY   73  41  31 W14G23    29.84F
MINOT          PTSUNNY   74  36  25 W24G38    29.78F
DICKINSON      MOSUNNY   69  34  27 W20       29.87F
BEACH            N/A     68  37  32 W21G32    29.94F
CROSBY         CLOUDY    68  36  30 W18       29.80F
TIOGA          PTSUNNY   68  34  28 W16G23    29.84F
WATFORD CITY     N/A     68  41  37 NW15      29.85S
BISMARCK       PTSUNNY   70  39  32 W17G25    29.85F
GRAND FORKS    PTSUNNY   76  42  29 W22G29    29.76F
FARGO          SUNNY     76  38  25 W20G25    29.79F
BUFFALO SD       N/A     68  36  30 NW18G30   29.92F
RAPID CITY     MOSUNNY   68  37  32 N15G22    30.01F
$$

REGIONAL REPORTS...WYOMING/IDAHO/WASHINGTON

CITY           SKY/WX    TMP DP  RH WIND       PRES   REMARKS
GILLETTE       MOSUNNY   62  37  39 NW15G22   30.09R
SHERIDAN       SUNNY     65  37  35 N14       30.10R
BUFFALO WY     SUNNY     62  35  36 N23G32    30.12S
CODY           SUNNY     61  28  28 NE7       30.17S
YELLOWSTONE LA   N/A     39  33  79 CALM      30.30R
IDAHO FALLS    SUNNY     55  44  66 VRB5      30.26S
SALMON         MOSUNNY   63  39  42 CALM      30.19F
BOISE          SUNNY     68  42  38 S3        30.19S
SPOKANE        MOSUNNY   71  44  37 SW7       30.14S
$$

REGIONAL REPORTS...ALBERTA

CITY           SKY/WX    TMP DP  RH WIND       PRES   REMARKS
EDMONTON       SUNNY     72  46  40 N9        29.92R
CALGARY        MOSUNNY   72  34  25 NW17      30.03S
LETHBRIDGE     MOSUNNY   72  41  33 NW10      30.03
MEDICINE HAT   MOSUNNY   75  32  20 W12G21    29.95S
MILK RIVER       N/A     70  41  35 NW17G24     N/A
$$

REGIONAL REPORTS...SASKATCHEWAN

CITY           SKY/WX    TMP DP  RH WIND       PRES   REMARKS
SWIFT CURRENT  PTSUNNY   66  41  39 N16G29    29.90R
REGINA         MOSUNNY   66  37  34 NW17G24   29.78F
SASKATOON      MOSUNNY   66  34  30 N17G31    29.83R
CYPRESS HILLS    N/A     64  34  32 NW9G18      N/A
VAL MARIE        N/A     72  34  25 NW21        N/A
ROCKGLEN         N/A     61  41  48 NW16G30     N/A
ASSINIBOIA       N/A     72  39  30 N6          N/A
$$




USA.gov is the U.S. government's official web portal to all federal, state and local government web resources and services.